Location: Brno
(49.2000°N, 16.6330°E)
Time: 13:09:33
(UTC+02:00)

Transit 2A - Visible Passes

Search period start: 03 August 2021 00:00
Search period end: 13 August 2021 00:00
Orbit: 598 x 960 km, 66.7° (Epoch: 02 August)

Date Brightness Start Highest point End Pass type
(mag) Time Alt. Az. Time Alt. Az. Time Alt. Az.
09 Aug 7.7 04:26:53 10° SSE 04:30:24 23° ESE 04:34:07 10° ENE visible
10 Aug 8.0 03:53:43 10° SE 03:56:27 16° ESE 03:59:17 10° ENE visible
11 Aug 8.3 03:21:40 10° ESE 03:22:34 11° ESE 03:23:29 10° E visible
11 Aug 5.8 05:00:15 10° SSW 05:04:42 78° ESE 05:09:34 10° NE visible
12 Aug 6.3 04:26:15 10° SSW 04:30:34 54° ESE 04:35:17 10° NE visible
